Regional Weather Roundup
Issued by NWS

Home | Current Version | Previous Version | Text Only | Print | Product List | Glossary Off
Versions: 1 2 3 4 5 6 7 8 9 10 11 12 13 14 15 16 17 18 19 20 21 22 23 24 25 26 27 28 29 30 31 32 33 34 35 36 37 38 39 40 41 42 43 44 45 46 47 48 49 50

000
ASUS45 KCYS 270010
RWRWY

WYOMING REGIONAL WEATHER ROUNDUP
NATIONAL WEATHER SERVICE CHEYENNE WY
600 PM MDT THU MAY 26 2016

NOTE:  "FAIR" INDICATES FEW OR NO CLOUDS BELOW 12,000 FEET
WITH NO SIGNIFICANT WEATHER AND/OR OBSTRUCTIONS TO VISIBILITY.

WYZ001-270100-
YELLOWSTONE NATIONAL PARK

CITY           SKY/WX    TMP DP  RH WIND       PRES   REMARKS
LK YELLOWSTONE   N/A     35  33  92 CALM      30.09R
6HR MIN TEMP:  35; 6HR MAX TEMP:  51; 6HR PCP:  0.19;

W YELLOWSTONE  NOT AVBL

$$
WYZ002>013-054>058-071-098>099-270100-
NORTHERN WYOMING

CITY           SKY/WX    TMP DP  RH WIND       PRES   REMARKS
JACKSON        MOSUNNY   57  34  41 W12       29.97F
CODY           FAIR      55  43  62 S13       29.95F
GREYBULL       FAIR      61  40  45 N8        29.91F
6HR MIN TEMP:  53; 6HR MAX TEMP:  65; 6HR PCP:  0.11;

WORLAND        FAIR      62  42  47 NE8       29.92F
6HR MIN TEMP:  55; 6HR MAX TEMP:  66; 6HR PCP:  0.03;

SHERIDAN       PTSUNNY   62  45  53 NW16      29.90F
6HR MIN TEMP:  54; 6HR MAX TEMP:  68; 6HR PCP: TRACE;

BUFFALO        PTSUNNY   60  43  53 N10       29.94S
                                      6HR PCP: TRACE;

GILLETTE         N/A     60  38  43 NW8       29.89R
6HR MIN TEMP:  55; 6HR MAX TEMP:  67; 6HR PCP: TRACE;

HULETT         CLOUDY    64  34  32 NW10      29.87F
NEWCASTLE      FAIR      68  30  24 NW13      29.87F

$$
WYZ014>020-022>026-101>103-270100-
CENTRAL WYOMING

CITY           SKY/WX    TMP DP  RH WIND       PRES   REMARKS
BIG PINEY      FAIR      60  25  26 N8        29.97S
6HR MIN TEMP:  54; 6HR MAX TEMP:  62;

PINEDALE       MOCLDY    59  30  33 NW6       29.97F
DUBOIS         FAIR      55  23  28 NW22      29.96S
LANDER         FAIR      66  32  28 VRB5      29.88S
6HR MIN TEMP:  60; 6HR MAX TEMP:  66;

RIVERTON       FAIR      63  34  33 N23       29.90S
6HR MIN TEMP:  60; 6HR MAX TEMP:  67;

CASPER         FAIR      60  35  39 N13       29.90S
6HR MIN TEMP:  56; 6HR MAX TEMP:  66;

DOUGLAS          N/A    N/A N/A N/A MISG      29.90S

$$
WYZ021-027>030-104>119-270100-
SOUTHERN WYOMING

CITY           SKY/WX    TMP DP  RH WIND       PRES   REMARKS
EVANSTON       FAIR      53  33  46 W13       30.02S
6HR MIN TEMP:  51; 6HR MAX TEMP:  60; 6HR PCP: TRACE;

KEMMERER         N/A     54  34  47 CALM      30.00F
FORT BRIDGER   CLOUDY    52  34  50 SW12      30.03S
ROCK SPRINGS   PTSUNNY   62  26  25 N9        29.93F
6HR MIN TEMP:  53; 6HR MAX TEMP:  63;

DIXON          MOCLDY    60  31  33 E6        29.92F
RAWLINS        CLOUDY    58  30  34 NE14      29.93R
6HR MIN TEMP:  57; 6HR MAX TEMP:  62;

SARATOGA       FAIR      59  28  31 NW7       29.92F
LARAMIE        FAIR      47  37  68 SE8       29.95F
6HR MIN TEMP:  43; 6HR MAX TEMP:  58;

CHEYENNE       PTSUNNY   49  42  77 CALM      29.91F
6HR MIN TEMP:  46; 6HR MAX TEMP:  63; 6HR PCP:  0.09;

TORRINGTON     FAIR      61  40  45 W10       29.86F
6HR MIN TEMP:  58; 6HR MAX TEMP:  70; 6HR PCP: TRACE;

PINE BLUFFS    LGT RAIN  50  45  81 SE5       29.91F

$$



USA.gov is the U.S. government's official web portal to all federal, state and local government web resources and services.